owner,sensor,date,latitude,longitude,air_pressure(mBar),qcFlag 
COMPS,ioos:station:USF.COMPS:C10:1,2012-09-07T12:20:00Z,27.1690,-82.9260,1015.6,1111122 
COMPS,ioos:station:USF.COMPS:C10:1,2012-09-07T12:40:00Z,27.1690,-82.9260,1015.7,1111122 
COMPS,ioos:station:USF.COMPS:C10:1,2012-09-07T13:20:00Z,27.1690,-82.9260,1016.1,1111122 
COMPS,ioos:station:USF.COMPS:C10:1,2012-09-07T13:40:00Z,27.1690,-82.9260,1015.9,1111122 
COMPS,ioos:station:USF.COMPS:C10:1,2012-09-07T14:00:00Z,27.1690,-82.9260,1016.1,1111122 
COMPS,ioos:station:USF.COMPS:C10:1,2012-09-07T14:20:00Z,27.1690,-82.9260,1016.3,1111122 
COMPS,ioos:station:USF.COMPS:C10:1,2012-09-07T14:40:00Z,27.1690,-82.9260,1016.3,1111122 
COMPS,ioos:station:USF.COMPS:C10:1,2012-09-07T16:00:00Z,27.1690,-82.9260,1016.3,1111122 
COMPS,ioos:station:USF.COMPS:C10:1,2012-09-07T16:20:00Z,27.1690,-82.9260,1016.1,1111122 
COMPS,ioos:station:USF.COMPS:C10:1,2012-09-07T16:40:00Z,27.1690,-82.9260,1016.1,1111122 
COMPS,ioos:station:USF.COMPS:C10:1,2012-09-07T17:00:00Z,27.1690,-82.9260,1016.0,1111122 
COMPS,ioos:station:USF.COMPS:C10:1,2012-09-07T17:20:00Z,27.1690,-82.9260,1016.1,1111122 
COMPS,ioos:station:USF.COMPS:C10:1,2012-09-07T17:40:00Z,27.1690,-82.9260,1015.8,1111122 
COMPS,ioos:station:USF.COMPS:C10:1,2012-09-07T18:00:00Z,27.1690,-82.9260,1015.6,1111122 
COMPS,ioos:station:USF.COMPS:C10:1,2012-09-07T18:20:00Z,27.1690,-82.9260,1015.6,1111122 
COMPS,ioos:station:USF.COMPS:C10:1,2012-09-07T18:40:00Z,27.1690,-82.9260,1015.3,1111122 
COMPS,ioos:station:USF.COMPS:C10:1,2012-09-07T19:00:00Z,27.1690,-82.9260,1014.9,1111122 
COMPS,ioos:station:USF.COMPS:C10:1,2012-09-07T19:20:00Z,27.1690,-82.9260,1014.6,1111122 
COMPS,ioos:station:USF.COMPS:C10:1,2012-09-07T19:40:00Z,27.1690,-82.9260,1014.4,1111122 
COMPS,ioos:station:USF.COMPS:C10:1,2012-09-07T20:00:00Z,27.1690,-82.9260,1014.1,1111122 
COMPS,ioos:station:USF.COMPS:C10:1,2012-09-07T20:20:00Z,27.1690,-82.9260,1014.1,1111122 
COMPS,ioos:station:USF.COMPS:C10:1,2012-09-07T20:40:00Z,27.1690,-82.9260,1013.8,1111122 
COMPS,ioos:station:USF.COMPS:C10:1,2012-09-07T21:00:00Z,27.1690,-82.9260,1013.6,1111122 
COMPS,ioos:station:USF.COMPS:C10:1,2012-09-07T21:20:00Z,27.1690,-82.9260,1013.5,1111122 
COMPS,ioos:station:USF.COMPS:C10:1,2012-09-07T21:40:00Z,27.1690,-82.9260,1013.6,1111122 
COMPS,ioos:station:USF.COMPS:C10:1,2012-09-07T22:00:00Z,27.1690,-82.9260,1013.7,1111122 
COMPS,ioos:station:USF.COMPS:C10:1,2012-09-07T22:20:00Z,27.1690,-82.9260,1013.5,1111122 
COMPS,ioos:station:USF.COMPS:C10:1,2012-09-07T22:40:00Z,27.1690,-82.9260,1013.5,1111122 
COMPS,ioos:station:USF.COMPS:C10:1,2012-09-07T23:00:00Z,27.1690,-82.9260,1013.5,1111122 
COMPS,ioos:station:USF.COMPS:C10:1,2012-09-08T12:20:00Z,27.1690,-82.9260,1014.5,1111122 
COMPS,ioos:station:USF.COMPS:C10:1,2012-09-08T12:40:00Z,27.1690,-82.9260,1014.7,1111122 
COMPS,ioos:station:USF.COMPS:C10:1,2012-09-08T13:20:00Z,27.1690,-82.9260,1015.0,1111122 
COMPS,ioos:station:USF.COMPS:C10:1,2012-09-08T13:40:00Z,27.1690,-82.9260,1015.0,1111122 
COMPS,ioos:station:USF.COMPS:C10:1,2012-09-08T14:00:00Z,27.1690,-82.9260,1015.1,1111122 
COMPS,ioos:station:USF.COMPS:C10:1,2012-09-08T14:20:00Z,27.1690,-82.9260,1015.2,1111122 
COMPS,ioos:station:USF.COMPS:C10:1,2012-09-08T14:40:00Z,27.1690,-82.9260,1015.2,1111122 
COMPS,ioos:station:USF.COMPS:C10:1,2012-09-08T15:00:00Z,27.1690,-82.9260,1015.4,1111122 
COMPS,ioos:station:USF.COMPS:C10:1,2012-09-08T15:20:00Z,27.1690,-82.9260,1015.5,1111122 
COMPS,ioos:station:USF.COMPS:C10:1,2012-09-08T15:40:00Z,27.1690,-82.9260,1015.3,1111122 
COMPS,ioos:station:USF.COMPS:C10:1,2012-09-08T16:00:00Z,27.1690,-82.9260,1015.4,1111122 
COMPS,ioos:station:USF.COMPS:C10:1,2012-09-08T16:20:00Z,27.1690,-82.9260,1015.2,1111122 
COMPS,ioos:station:USF.COMPS:C10:1,2012-09-08T16:40:00Z,27.1690,-82.9260,1014.9,1111122 
COMPS,ioos:station:USF.COMPS:C10:1,2012-09-08T17:00:00Z,27.1690,-82.9260,1015.0,1111122 
COMPS,ioos:station:USF.COMPS:C10:1,2012-09-08T17:20:00Z,27.1690,-82.9260,1014.5,1111122 
COMPS,ioos:station:USF.COMPS:C10:1,2012-09-08T17:40:00Z,27.1690,-82.9260,1014.2,1111122 
COMPS,ioos:station:USF.COMPS:C10:1,2012-09-08T18:00:00Z,27.1690,-82.9260,1013.8,1111122 
COMPS,ioos:station:USF.COMPS:C10:1,2012-09-08T18:20:00Z,27.1690,-82.9260,1013.8,1111122 
COMPS,ioos:station:USF.COMPS:C10:1,2012-09-08T18:40:00Z,27.1690,-82.9260,1013.4,1111122 
COMPS,ioos:station:USF.COMPS:C10:1,2012-09-08T19:00:00Z,27.1690,-82.9260,1013.4,1111122 
COMPS,ioos:station:USF.COMPS:C10:1,2012-09-08T19:20:00Z,27.1690,-82.9260,1013.1,1111122 
COMPS,ioos:station:USF.COMPS:C10:1,2012-09-08T19:40:00Z,27.1690,-82.9260,1013.2,1111122 
COMPS,ioos:station:USF.COMPS:C10:1,2012-09-08T20:00:00Z,27.1690,-82.9260,1013.0,1111122 
COMPS,ioos:station:USF.COMPS:C10:1,2012-09-08T20:20:00Z,27.1690,-82.9260,1012.7,1111122 
COMPS,ioos:station:USF.COMPS:C10:1,2012-09-08T20:40:00Z,27.1690,-82.9260,1012.4,1111122 
COMPS,ioos:station:USF.COMPS:C10:1,2012-09-08T21:00:00Z,27.1690,-82.9260,1012.3,1111122 
COMPS,ioos:station:USF.COMPS:C10:1,2012-09-09T12:20:00Z,27.1690,-82.9260,1013.8,1111122 
COMPS,ioos:station:USF.COMPS:C10:1,2012-09-09T12:40:00Z,27.1690,-82.9260,1014.1,1111122 
COMPS,ioos:station:USF.COMPS:C10:1,2012-09-09T13:20:00Z,27.1690,-82.9260,1014.5,1111122 
COMPS,ioos:station:USF.COMPS:C10:1,2012-09-09T13:40:00Z,27.1690,-82.9260,1014.7,1111122 
COMPS,ioos:station:USF.COMPS:C10:1,2012-09-09T14:20:00Z,27.1690,-82.9260,1014.9,1111122 
COMPS,ioos:station:USF.COMPS:C10:1,2012-09-09T14:40:00Z,27.1690,-82.9260,1014.9,1111122 
COMPS,ioos:station:USF.COMPS:C10:1,2012-09-09T15:20:00Z,27.1690,-82.9260,1015.0,1111122 
COMPS,ioos:station:USF.COMPS:C10:1,2012-09-09T15:40:00Z,27.1690,-82.9260,1015.2,1111122 
COMPS,ioos:station:USF.COMPS:C10:1,2012-09-09T16:00:00Z,27.1690,-82.9260,1015.0,1111122 
COMPS,ioos:station:USF.COMPS:C10:1,2012-09-09T16:20:00Z,27.1690,-82.9260,1015.1,1111122 
COMPS,ioos:station:USF.COMPS:C10:1,2012-09-09T16:40:00Z,27.1690,-82.9260,1015.2,1111122 
COMPS,ioos:station:USF.COMPS:C10:1,2012-09-09T17:00:00Z,27.1690,-82.9260,1015.3,1111122 
COMPS,ioos:station:USF.COMPS:C10:1,2012-09-09T17:20:00Z,27.1690,-82.9260,1014.8,1111122 
COMPS,ioos:station:USF.COMPS:C10:1,2012-09-09T17:40:00Z,27.1690,-82.9260,1014.8,1111122 
COMPS,ioos:station:USF.COMPS:C10:1,2012-09-09T18:20:00Z,27.1690,-82.9260,1014.5,1111122 
COMPS,ioos:station:USF.COMPS:C10:1,2012-09-09T18:40:00Z,27.1690,-82.9260,1014.3,1111122 
COMPS,ioos:station:USF.COMPS:C10:1,2012-09-09T19:00:00Z,27.1690,-82.9260,1014.0,1111122 
COMPS,ioos:station:USF.COMPS:C10:1,2012-09-09T19:20:00Z,27.1690,-82.9260,1013.7,1111122 
COMPS,ioos:station:USF.COMPS:C10:1,2012-09-09T19:40:00Z,27.1690,-82.9260,1013.4,1111122 
COMPS,ioos:station:USF.COMPS:C10:1,2012-09-09T20:00:00Z,27.1690,-82.9260,1013.0,1111122 
COMPS,ioos:station:USF.COMPS:C10:1,2012-09-09T20:20:00Z,27.1690,-82.9260,1012.9,1111122 
COMPS,ioos:station:USF.COMPS:C10:1,2012-09-09T20:40:00Z,27.1690,-82.9260,1013.1,1111122 
COMPS,ioos:station:USF.COMPS:C10:1,2012-09-09T21:00:00Z,27.1690,-82.9260,1013.4,1111122 
COMPS,ioos:station:USF.COMPS:C10:1,2012-09-09T21:20:00Z,27.1690,-82.9260,1013.4,1111122 
COMPS,ioos:station:USF.COMPS:C10:1,2012-09-09T21:40:00Z,27.1690,-82.9260,1013.4,1111122 
COMPS,ioos:station:USF.COMPS:C10:1,2012-09-09T22:00:00Z,27.1690,-82.9260,1013.5,1111122 
COMPS,ioos:station:USF.COMPS:C10:1,2012-09-09T22:20:00Z,27.1690,-82.9260,1013.6,1111122 
COMPS,ioos:station:USF.COMPS:C10:1,2012-09-09T22:40:00Z,27.1690,-82.9260,1013.6,1111122 
COMPS,ioos:station:USF.COMPS:C10:1,2012-09-09T23:00:00Z,27.1690,-82.9260,1013.6,1111122 
COMPS,ioos:station:USF.COMPS:C10:1,2012-09-10T12:20:00Z,27.1690,-82.9260,1015.6,1111122 
COMPS,ioos:station:USF.COMPS:C10:1,2012-09-10T12:40:00Z,27.1690,-82.9260,1015.8,1111122 
COMPS,ioos:station:USF.COMPS:C10:1,2012-09-10T13:20:00Z,27.1690,-82.9260,1016.0,1111122 
COMPS,ioos:station:USF.COMPS:C10:1,2012-09-10T13:40:00Z,27.1690,-82.9260,1016.0,1111122 
COMPS,ioos:station:USF.COMPS:C10:1,2012-09-10T14:00:00Z,27.1690,-82.9260,1016.0,1111122 
COMPS,ioos:station:USF.COMPS:C10:1,2012-09-10T14:20:00Z,27.1690,-82.9260,1016.5,1111122 
COMPS,ioos:station:USF.COMPS:C10:1,2012-09-10T14:40:00Z,27.1690,-82.9260,1016.6,1111122 
COMPS,ioos:station:USF.COMPS:C10:1,2012-09-10T15:20:00Z,27.1690,-82.9260,1016.7,1111122 
COMPS,ioos:station:USF.COMPS:C10:1,2012-09-10T15:40:00Z,27.1690,-82.9260,1016.6,1111122 
COMPS,ioos:station:USF.COMPS:C10:1,2012-09-10T16:00:00Z,27.1690,-82.9260,1016.9,1111122 
COMPS,ioos:station:USF.COMPS:C10:1,2012-09-10T16:20:00Z,27.1690,-82.9260,1016.9,1111122 
COMPS,ioos:station:USF.COMPS:C10:1,2012-09-10T16:40:00Z,27.1690,-82.9260,1016.8,1111122 
COMPS,ioos:station:USF.COMPS:C10:1,2012-09-10T17:00:00Z,27.1690,-82.9260,1016.7,1111122 
COMPS,ioos:station:USF.COMPS:C10:1,2012-09-10T17:20:00Z,27.1690,-82.9260,1016.5,1111122 
COMPS,ioos:station:USF.COMPS:C10:1,2012-09-10T17:40:00Z,27.1690,-82.9260,1016.3,1111122 
COMPS,ioos:station:USF.COMPS:C10:1,2012-09-10T18:00:00Z,27.1690,-82.9260,1016.1,1111122 
COMPS,ioos:station:USF.COMPS:C10:1,2012-09-10T18:20:00Z,27.1690,-82.9260,1016.1,1111122 
COMPS,ioos:station:USF.COMPS:C10:1,2012-09-10T18:40:00Z,27.1690,-82.9260,1016.1,1111122 
COMPS,ioos:station:USF.COMPS:C10:1,2012-09-10T19:00:00Z,27.1690,-82.9260,1016.0,1111122 
COMPS,ioos:station:USF.COMPS:C10:1,2012-09-10T19:20:00Z,27.1690,-82.9260,1015.7,1111122 
COMPS,ioos:station:USF.COMPS:C10:1,2012-09-10T19:40:00Z,27.1690,-82.9260,1015.6,1111122 
COMPS,ioos:station:USF.COMPS:C10:1,2012-09-10T20:00:00Z,27.1690,-82.9260,1015.4,1111122 
COMPS,ioos:station:USF.COMPS:C10:1,2012-09-10T20:20:00Z,27.1690,-82.9260,1015.3,1111122 
COMPS,ioos:station:USF.COMPS:C10:1,2012-09-10T20:40:00Z,27.1690,-82.9260,1015.4,1111122 
COMPS,ioos:station:USF.COMPS:C10:1,2012-09-10T21:20:00Z,27.1690,-82.9260,1015.6,1111122 
COMPS,ioos:station:USF.COMPS:C10:1,2012-09-10T21:40:00Z,27.1690,-82.9260,1015.8,1111122 
COMPS,ioos:station:USF.COMPS:C10:1,2012-09-11T12:20:00Z,27.1690,-82.9260,1018.4,1111122 
COMPS,ioos:station:USF.COMPS:C10:1,2012-09-11T12:40:00Z,27.1690,-82.9260,1018.5,1111122 
COMPS,ioos:station:USF.COMPS:C10:1,2012-09-11T13:00:00Z,27.1690,-82.9260,1018.5,1111122 
COMPS,ioos:station:USF.COMPS:C10:1,2012-09-11T13:20:00Z,27.1690,-82.9260,1018.7,1111122 
COMPS,ioos:station:USF.COMPS:C10:1,2012-09-11T13:40:00Z,27.1690,-82.9260,1018.7,1111122 
COMPS,ioos:station:USF.COMPS:C10:1,2012-09-11T14:20:00Z,27.1690,-82.9260,1019.1,1111122 
COMPS,ioos:station:USF.COMPS:C10:1,2012-09-11T14:40:00Z,27.1690,-82.9260,1019.2,1111122 
COMPS,ioos:station:USF.COMPS:C10:1,2012-09-11T15:00:00Z,27.1690,-82.9260,1019.4,1111122 
COMPS,ioos:station:USF.COMPS:C10:1,2012-09-11T15:20:00Z,27.1690,-82.9260,1019.4,1111122 
COMPS,ioos:station:USF.COMPS:C10:1,2012-09-11T15:40:00Z,27.1690,-82.9260,1019.4,1111122 
COMPS,ioos:station:USF.COMPS:C10:1,2012-09-11T16:00:00Z,27.1690,-82.9260,1019.2,1111122 
COMPS,ioos:station:USF.COMPS:C10:1,2012-09-11T16:20:00Z,27.1690,-82.9260,1019.2,1111122 
COMPS,ioos:station:USF.COMPS:C10:1,2012-09-11T16:40:00Z,27.1690,-82.9260,1019.2,1111122 
COMPS,ioos:station:USF.COMPS:C10:1,2012-09-11T17:00:00Z,27.1690,-82.9260,1019.0,1111122 
COMPS,ioos:station:USF.COMPS:C10:1,2012-09-11T17:20:00Z,27.1690,-82.9260,1018.9,1111122 
COMPS,ioos:station:USF.COMPS:C10:1,2012-09-11T17:40:00Z,27.1690,-82.9260,1019.0,1111122 
COMPS,ioos:station:USF.COMPS:C10:1,2012-09-11T18:00:00Z,27.1690,-82.9260,1018.6,1111122 
COMPS,ioos:station:USF.COMPS:C10:1,2012-09-11T18:20:00Z,27.1690,-82.9260,1018.5,1111122 
COMPS,ioos:station:USF.COMPS:C10:1,2012-09-11T18:40:00Z,27.1690,-82.9260,1018.3,1111122 
COMPS,ioos:station:USF.COMPS:C10:1,2012-09-11T19:00:00Z,27.1690,-82.9260,1018.1,1111122 
COMPS,ioos:station:USF.COMPS:C10:1,2012-09-11T19:20:00Z,27.1690,-82.9260,1017.8,1111122 
COMPS,ioos:station:USF.COMPS:C10:1,2012-09-11T19:40:00Z,27.1690,-82.9260,1017.6,1111122 
COMPS,ioos:station:USF.COMPS:C10:1,2012-09-11T20:00:00Z,27.1690,-82.9260,1017.2,1111122 
COMPS,ioos:station:USF.COMPS:C10:1,2012-09-11T20:20:00Z,27.1690,-82.9260,1017.2,1111122 
COMPS,ioos:station:USF.COMPS:C10:1,2012-09-11T20:40:00Z,27.1690,-82.9260,1017.2,1111122 
COMPS,ioos:station:USF.COMPS:C10:1,2012-09-11T21:00:00Z,27.1690,-82.9260,1017.4,1111122 
COMPS,ioos:station:USF.COMPS:C10:1,2012-09-11T21:20:00Z,27.1690,-82.9260,1017.2,1111122 
COMPS,ioos:station:USF.COMPS:C10:1,2012-09-11T21:40:00Z,27.1690,-82.9260,1017.3,1111122 
COMPS,ioos:station:USF.COMPS:C10:1,2012-09-11T23:00:00Z,27.1690,-82.9260,1017.8,1111122 
COMPS,ioos:station:USF.COMPS:C10:1,2012-09-12T12:20:00Z,27.1690,-82.9260,1019.1,1111122 
COMPS,ioos:station:USF.COMPS:C10:1,2012-09-12T12:40:00Z,27.1690,-82.9260,1019.2,1111122 
COMPS,ioos:station:USF.COMPS:C10:1,2012-09-12T13:20:00Z,27.1690,-82.9260,1019.4,1111122 
COMPS,ioos:station:USF.COMPS:C10:1,2012-09-12T13:40:00Z,27.1690,-82.9260,1019.4,1111122 
COMPS,ioos:station:USF.COMPS:C10:1,2012-09-12T14:00:00Z,27.1690,-82.9260,1019.6,1111122 
COMPS,ioos:station:USF.COMPS:C10:1,2012-09-12T14:20:00Z,27.1690,-82.9260,1019.8,1111122 
COMPS,ioos:station:USF.COMPS:C10:1,2012-09-12T14:40:00Z,27.1690,-82.9260,1019.9,1111122 
COMPS,ioos:station:USF.COMPS:C10:1,2012-09-12T15:00:00Z,27.1690,-82.9260,1020.2,1111122 
COMPS,ioos:station:USF.COMPS:C10:1,2012-09-12T15:20:00Z,27.1690,-82.9260,1019.9,1111122 
COMPS,ioos:station:USF.COMPS:C10:1,2012-09-12T15:40:00Z,27.1690,-82.9260,1020.0,1111122 
COMPS,ioos:station:USF.COMPS:C10:1,2012-09-12T16:00:00Z,27.1690,-82.9260,1019.8,1111122 
COMPS,ioos:station:USF.COMPS:C10:1,2012-09-12T16:20:00Z,27.1690,-82.9260,1019.8,1111122 
COMPS,ioos:station:USF.COMPS:C10:1,2012-09-12T16:40:00Z,27.1690,-82.9260,1019.6,1111122 
COMPS,ioos:station:USF.COMPS:C10:1,2012-09-12T17:00:00Z,27.1690,-82.9260,1019.5,1111122 
COMPS,ioos:station:USF.COMPS:C10:1,2012-09-12T17:20:00Z,27.1690,-82.9260,1019.4,1111122 
COMPS,ioos:station:USF.COMPS:C10:1,2012-09-12T17:40:00Z,27.1690,-82.9260,1019.4,1111122 
COMPS,ioos:station:USF.COMPS:C10:1,2012-09-12T18:00:00Z,27.1690,-82.9260,1019.1,1111122 
COMPS,ioos:station:USF.COMPS:C10:1,2012-09-12T18:20:00Z,27.1690,-82.9260,1018.7,1111122 
COMPS,ioos:station:USF.COMPS:C10:1,2012-09-12T18:40:00Z,27.1690,-82.9260,1018.4,1111122 
COMPS,ioos:station:USF.COMPS:C10:1,2012-09-12T19:00:00Z,27.1690,-82.9260,1018.3,1111122 
COMPS,ioos:station:USF.COMPS:C10:1,2012-09-12T19:20:00Z,27.1690,-82.9260,1017.9,1111122 
COMPS,ioos:station:USF.COMPS:C10:1,2012-09-12T19:40:00Z,27.1690,-82.9260,1017.6,1111122 
COMPS,ioos:station:USF.COMPS:C10:1,2012-09-12T20:00:00Z,27.1690,-82.9260,1017.4,1111122 
COMPS,ioos:station:USF.COMPS:C10:1,2012-09-12T20:20:00Z,27.1690,-82.9260,1017.4,1111122 
COMPS,ioos:station:USF.COMPS:C10:1,2012-09-12T20:40:00Z,27.1690,-82.9260,1017.3,1111122 
COMPS,ioos:station:USF.COMPS:C10:1,2012-09-12T21:00:00Z,27.1690,-82.9260,1017.0,1111122 
COMPS,ioos:station:USF.COMPS:C10:1,2012-09-12T21:20:00Z,27.1690,-82.9260,1017.0,1111122 
COMPS,ioos:station:USF.COMPS:C10:1,2012-09-12T21:40:00Z,27.1690,-82.9260,1017.0,1111122 
COMPS,ioos:station:USF.COMPS:C10:1,2012-09-12T22:00:00Z,27.1690,-82.9260,1017.0,1111122 
COMPS,ioos:station:USF.COMPS:C10:1,2012-09-13T13:20:00Z,27.1690,-82.9260,1018.7,1111122 
COMPS,ioos:station:USF.COMPS:C10:1,2012-09-13T13:40:00Z,27.1690,-82.9260,1018.8,1111122 
COMPS,ioos:station:USF.COMPS:C10:1,2012-09-13T14:20:00Z,27.1690,-82.9260,1019.0,1111122 
COMPS,ioos:station:USF.COMPS:C10:1,2012-09-13T14:40:00Z,27.1690,-82.9260,1019.2,1111122 
COMPS,ioos:station:USF.COMPS:C10:1,2012-09-13T15:00:00Z,27.1690,-82.9260,1019.2,1111122 
COMPS,ioos:station:USF.COMPS:C10:1,2012-09-13T15:20:00Z,27.1690,-82.9260,1019.4,1111122 
COMPS,ioos:station:USF.COMPS:C10:1,2012-09-13T15:40:00Z,27.1690,-82.9260,1019.4,1111122 
COMPS,ioos:station:USF.COMPS:C10:1,2012-09-13T16:00:00Z,27.1690,-82.9260,1019.0,1111122 
COMPS,ioos:station:USF.COMPS:C10:1,2012-09-13T16:20:00Z,27.1690,-82.9260,1018.9,1111122 
COMPS,ioos:station:USF.COMPS:C10:1,2012-09-13T16:40:00Z,27.1690,-82.9260,1018.9,1111122 
COMPS,ioos:station:USF.COMPS:C10:1,2012-09-13T17:00:00Z,27.1690,-82.9260,1018.7,1111122 
COMPS,ioos:station:USF.COMPS:C10:1,2012-09-13T17:20:00Z,27.1690,-82.9260,1018.5,1111122 
COMPS,ioos:station:USF.COMPS:C10:1,2012-09-13T17:40:00Z,27.1690,-82.9260,1018.2,1111122 
COMPS,ioos:station:USF.COMPS:C10:1,2012-09-13T18:00:00Z,27.1690,-82.9260,1017.9,1111122 
COMPS,ioos:station:USF.COMPS:C10:1,2012-09-13T18:20:00Z,27.1690,-82.9260,1017.7,1111122 
COMPS,ioos:station:USF.COMPS:C10:1,2012-09-13T18:40:00Z,27.1690,-82.9260,1017.5,1111122 
COMPS,ioos:station:USF.COMPS:C10:1,2012-09-13T19:00:00Z,27.1690,-82.9260,1017.4,1111122 
COMPS,ioos:station:USF.COMPS:C10:1,2012-09-13T19:20:00Z,27.1690,-82.9260,1017.0,1111122 
COMPS,ioos:station:USF.COMPS:C10:1,2012-09-13T19:40:00Z,27.1690,-82.9260,1016.6,1111122 
COMPS,ioos:station:USF.COMPS:C10:1,2012-09-13T20:00:00Z,27.1690,-82.9260,1016.4,1111122 
COMPS,ioos:station:USF.COMPS:C10:1,2012-09-13T20:20:00Z,27.1690,-82.9260,1016.3,1111122 
COMPS,ioos:station:USF.COMPS:C10:1,2012-09-13T20:40:00Z,27.1690,-82.9260,1016.5,1111122 
COMPS,ioos:station:USF.COMPS:C10:1,2012-09-13T21:00:00Z,27.1690,-82.9260,1016.2,1111122 
COMPS,ioos:station:USF.COMPS:C10:1,2012-09-14T12:20:00Z,27.1690,-82.9260,1017.2,1111122 
COMPS,ioos:station:USF.COMPS:C10:1,2012-09-14T12:40:00Z,27.1690,-82.9260,1017.2,1111122 
COMPS,ioos:station:USF.COMPS:C10:1,2012-09-14T13:20:00Z,27.1690,-82.9260,1017.5,1111122 
COMPS,ioos:station:USF.COMPS:C10:1,2012-09-14T13:40:00Z,27.1690,-82.9260,1017.3,1111122 
COMPS,ioos:station:USF.COMPS:C10:1,2012-09-14T14:00:00Z,27.1690,-82.9260,1017.3,1111122 
COMPS,ioos:station:USF.COMPS:C10:1,2012-09-14T14:20:00Z,27.1690,-82.9260,1017.5,1111122 
COMPS,ioos:station:USF.COMPS:C10:1,2012-09-14T14:40:00Z,27.1690,-82.9260,1017.6,1111122 
COMPS,ioos:station:USF.COMPS:C10:1,2012-09-14T15:00:00Z,27.1690,-82.9260,1017.7,1111122 
COMPS,ioos:station:USF.COMPS:C10:1,2012-09-14T15:20:00Z,27.1690,-82.9260,1017.7,1111122 
COMPS,ioos:station:USF.COMPS:C10:1,2012-09-14T15:40:00Z,27.1690,-82.9260,1017.7,1111122 
COMPS,ioos:station:USF.COMPS:C10:1,2012-09-14T16:00:00Z,27.1690,-82.9260,1017.6,1111122 
COMPS,ioos:station:USF.COMPS:C10:1,2012-09-14T16:20:00Z,27.1690,-82.9260,1017.5,1111122 
COMPS,ioos:station:USF.COMPS:C10:1,2012-09-14T16:40:00Z,27.1690,-82.9260,1017.2,1111122 
COMPS,ioos:station:USF.COMPS:C10:1,2012-09-14T17:00:00Z,27.1690,-82.9260,1017.4,1111122 
COMPS,ioos:station:USF.COMPS:C10:1,2012-09-14T17:20:00Z,27.1690,-82.9260,1017.2,1111122 
COMPS,ioos:station:USF.COMPS:C10:1,2012-09-14T17:40:00Z,27.1690,-82.9260,1017.2,1111122 
COMPS,ioos:station:USF.COMPS:C10:1,2012-09-14T18:00:00Z,27.1690,-82.9260,1016.9,1111122 
COMPS,ioos:station:USF.COMPS:C10:1,2012-09-14T18:20:00Z,27.1690,-82.9260,1016.8,1111122 
COMPS,ioos:station:USF.COMPS:C10:1,2012-09-14T18:40:00Z,27.1690,-82.9260,1016.7,1111122 
COMPS,ioos:station:USF.COMPS:C10:1,2012-09-14T19:00:00Z,27.1690,-82.9260,1016.3,1111122 
COMPS,ioos:station:USF.COMPS:C10:1,2012-09-14T19:20:00Z,27.1690,-82.9260,1016.1,1111122 
COMPS,ioos:station:USF.COMPS:C10:1,2012-09-14T19:40:00Z,27.1690,-82.9260,1016.0,1111122 
COMPS,ioos:station:USF.COMPS:C10:1,2012-09-14T20:00:00Z,27.1690,-82.9260,1015.7,1111122 
COMPS,ioos:station:USF.COMPS:C10:1,2012-09-14T20:20:00Z,27.1690,-82.9260,1015.5,1111122 
COMPS,ioos:station:USF.COMPS:C10:1,2012-09-14T20:40:00Z,27.1690,-82.9260,1015.2,1111122 
COMPS,ioos:station:USF.COMPS:C10:1,2012-09-14T21:00:00Z,27.1690,-82.9260,1015.2,1111122 
COMPS,ioos:station:USF.COMPS:C10:1,2012-09-14T21:20:00Z,27.1690,-82.9260,1015.4,1111122 
COMPS,ioos:station:USF.COMPS:C10:1,2012-09-14T21:40:00Z,27.1690,-82.9260,1015.4,1111122 
COMPS,ioos:station:USF.COMPS:C10:1,2012-09-14T22:00:00Z,27.1690,-82.9260,1015.4,1111122 
COMPS,ioos:station:USF.COMPS:C10:1,2012-09-15T12:20:00Z,27.1690,-82.9260,1017.6,1111122 
COMPS,ioos:station:USF.COMPS:C10:1,2012-09-15T12:40:00Z,27.1690,-82.9260,1017.7,1111122 
COMPS,ioos:station:USF.COMPS:C10:1,2012-09-15T13:20:00Z,27.1690,-82.9260,1017.8,1111122 
COMPS,ioos:station:USF.COMPS:C10:1,2012-09-15T13:40:00Z,27.1690,-82.9260,1018.0,1111122 
COMPS,ioos:station:USF.COMPS:C10:1,2012-09-15T14:00:00Z,27.1690,-82.9260,1017.9,1111122 
COMPS,ioos:station:USF.COMPS:C10:1,2012-09-15T14:20:00Z,27.1690,-82.9260,1018.0,1111122 
COMPS,ioos:station:USF.COMPS:C10:1,2012-09-15T14:40:00Z,27.1690,-82.9260,1018.1,1111122 
COMPS,ioos:station:USF.COMPS:C10:1,2012-09-15T15:00:00Z,27.1690,-82.9260,1018.1,1111122 
COMPS,ioos:station:USF.COMPS:C10:1,2012-09-15T15:20:00Z,27.1690,-82.9260,1018.3,1111122 
COMPS,ioos:station:USF.COMPS:C10:1,2012-09-15T15:40:00Z,27.1690,-82.9260,1018.3,1111122 
COMPS,ioos:station:USF.COMPS:C10:1,2012-09-15T16:00:00Z,27.1690,-82.9260,1018.3,1111122 
COMPS,ioos:station:USF.COMPS:C10:1,2012-09-15T16:20:00Z,27.1690,-82.9260,1018.2,1111122 
COMPS,ioos:station:USF.COMPS:C10:1,2012-09-15T16:40:00Z,27.1690,-82.9260,1018.1,1111122 
COMPS,ioos:station:USF.COMPS:C10:1,2012-09-15T17:00:00Z,27.1690,-82.9260,1017.9,1111122 
COMPS,ioos:station:USF.COMPS:C10:1,2012-09-15T17:20:00Z,27.1690,-82.9260,1017.7,1111122 
COMPS,ioos:station:USF.COMPS:C10:1,2012-09-15T17:40:00Z,27.1690,-82.9260,1017.4,1111122 
COMPS,ioos:station:USF.COMPS:C10:1,2012-09-15T18:00:00Z,27.1690,-82.9260,1017.2,1111122 
COMPS,ioos:station:USF.COMPS:C10:1,2012-09-15T18:20:00Z,27.1690,-82.9260,1016.8,1111122 
COMPS,ioos:station:USF.COMPS:C10:1,2012-09-15T18:40:00Z,27.1690,-82.9260,1016.6,1111122 
COMPS,ioos:station:USF.COMPS:C10:1,2012-09-15T19:00:00Z,27.1690,-82.9260,1016.4,1111122 
COMPS,ioos:station:USF.COMPS:C10:1,2012-09-15T19:20:00Z,27.1690,-82.9260,1015.9,1111122 
COMPS,ioos:station:USF.COMPS:C10:1,2012-09-15T19:40:00Z,27.1690,-82.9260,1015.8,1111122 
COMPS,ioos:station:USF.COMPS:C10:1,2012-09-15T20:20:00Z,27.1690,-82.9260,1015.7,1111122 
COMPS,ioos:station:USF.COMPS:C10:1,2012-09-15T20:40:00Z,27.1690,-82.9260,1015.7,1111122 
COMPS,ioos:station:USF.COMPS:C10:1,2012-09-15T21:00:00Z,27.1690,-82.9260,1015.8,1111122 
COMPS,ioos:station:USF.COMPS:C10:1,2012-09-15T21:20:00Z,27.1690,-82.9260,1016.0,1111122 
COMPS,ioos:station:USF.COMPS:C10:1,2012-09-15T21:40:00Z,27.1690,-82.9260,1015.7,1111122 
COMPS,ioos:station:USF.COMPS:C10:1,2012-09-15T22:00:00Z,27.1690,-82.9260,1015.6,1111122 
COMPS,ioos:station:USF.COMPS:C10:1,2012-09-15T22:20:00Z,27.1690,-82.9260,1015.9,1111122 
COMPS,ioos:station:USF.COMPS:C10:1,2012-09-15T22:40:00Z,27.1690,-82.9260,1015.9,1111122 
COMPS,ioos:station:USF.COMPS:C10:1,2012-09-15T23:00:00Z,27.1690,-82.9260,1015.9,1111122 
COMPS,ioos:station:USF.COMPS:C10:1,2012-09-16T15:20:00Z,27.1690,-82.9260,1017.2,1111122 
COMPS,ioos:station:USF.COMPS:C10:1,2012-09-16T15:40:00Z,27.1690,-82.9260,1017.3,1111122 
COMPS,ioos:station:USF.COMPS:C10:1,2012-09-16T16:20:00Z,27.1690,-82.9260,1017.3,1111122 
COMPS,ioos:station:USF.COMPS:C10:1,2012-09-16T16:40:00Z,27.1690,-82.9260,1017.4,1111122 
COMPS,ioos:station:USF.COMPS:C10:1,2012-09-16T17:00:00Z,27.1690,-82.9260,1017.2,1111122 
COMPS,ioos:station:USF.COMPS:C10:1,2012-09-16T17:20:00Z,27.1690,-82.9260,1017.0,1111122 
COMPS,ioos:station:USF.COMPS:C10:1,2012-09-16T17:40:00Z,27.1690,-82.9260,1017.1,1111122 
COMPS,ioos:station:USF.COMPS:C10:1,2012-09-16T18:00:00Z,27.1690,-82.9260,1016.7,1111122 
COMPS,ioos:station:USF.COMPS:C10:1,2012-09-16T18:20:00Z,27.1690,-82.9260,1016.3,1111122 
COMPS,ioos:station:USF.COMPS:C10:1,2012-09-16T18:40:00Z,27.1690,-82.9260,1016.1,1111122 
COMPS,ioos:station:USF.COMPS:C10:1,2012-09-16T19:00:00Z,27.1690,-82.9260,1016.0,1111122 
COMPS,ioos:station:USF.COMPS:C10:1,2012-09-16T19:20:00Z,27.1690,-82.9260,1015.8,1111122 
COMPS,ioos:station:USF.COMPS:C10:1,2012-09-16T19:40:00Z,27.1690,-82.9260,1015.8,1111122 
COMPS,ioos:station:USF.COMPS:C10:1,2012-09-16T20:00:00Z,27.1690,-82.9260,1015.4,1111122 
COMPS,ioos:station:USF.COMPS:C10:1,2012-09-16T20:20:00Z,27.1690,-82.9260,1015.3,1111122 
COMPS,ioos:station:USF.COMPS:C10:1,2012-09-16T20:40:00Z,27.1690,-82.9260,1015.2,1111122 
COMPS,ioos:station:USF.COMPS:C10:1,2012-09-16T21:00:00Z,27.1690,-82.9260,1015.3,1111122 